Location: Melizzano
(41.1500°N, 14.5000°E)
Time: 20:53:21
(UTC+00:00)

Resurs 1-3 - Pass Details

Date: 11 May 2021
Orbit: 630 x 631 km, 97.9° (Epoch: 23 June)

Event Time Altitude Azimuth Distance (km) Brightness Sun altitude
Exits shadow 19:15:57 - 166° (SSE) 2,068 5.8 -11.5°
Reaches altitude 10° 19:16:06 10° 166° (SSE) 2,006 5.7 -11.6°
Maximum altitude 19:20:29 89° 75° (ENE) 638 3.6 -12.2°
Drops below altitude 10° 19:24:54 10° 348° (NNW) 2,021 7.0 -12.9°
Sets 19:27:06 0° 348° (NNW) 2,934 7.9 -13.2°
